Total_Precipitation_Accumulation
0.60 0.56 0.56 0.52 0.45 0.37 0.30 0.28 0.26 0.21 0.21 0.19 0.14 0.10 0.07 0.06 0.06 0.06 0.05 0.04 0.04 0.05 0.07 0.12 0.16 0.20 0.26 0.31 0.37 0.39 0.37 0.33 0.32 0.32 0.30 0.29 0.27 0.27 0.29 0.30 0.30 0.31 0.32
0.68 0.64 0.57 0.54 0.50 0.43 0.35 0.29 0.27 0.25 0.22 0.20 0.17 0.13 0.10 0.09 0.08 0.08 0.07 0.06 0.05 0.04 0.05 0.08 0.15 0.25 0.35 0.45 0.50 0.49 0.45 0.40 0.37 0.36 0.36 0.34 0.32 0.31 0.31 0.31 0.31 0.32 0.34
0.75 0.73 0.63 0.54 0.50 0.49 0.45 0.40 0.38 0.33 0.27 0.21 0.16 0.14 0.12 0.10 0.09 0.08 0.08 0.07 0.06 0.05 0.05 0.06 0.11 0.21 0.33 0.45 0.54 0.59 0.54 0.48 0.44 0.41 0.40 0.39 0.38 0.38 0.38 0.38 0.37 0.36 0.37
0.92 0.85 0.74 0.64 0.65 0.67 0.61 0.52 0.47 0.39 0.31 0.26 0.20 0.17 0.15 0.12 0.10 0.09 0.09 0.07 0.07 0.06 0.06 0.06 0.09 0.15 0.23 0.34 0.49 0.62 0.64 0.60 0.55 0.50 0.45 0.43 0.43 0.42 0.43 0.44 0.45 0.46 0.47
0.98 0.92 0.81 0.77 0.81 0.78 0.70 0.63 0.56 0.49 0.40 0.36 0.31 0.25 0.21 0.17 0.14 0.13 0.11 0.10 0.09 0.09 0.09 0.10 0.10 0.11 0.14 0.20 0.31 0.49 0.62 0.66 0.60 0.52 0.48 0.46 0.45 0.46 0.47 0.47 0.47 0.49 0.51
1.04 0.98 0.87 0.86 0.92 0.87 0.79 0.73 0.67 0.62 0.55 0.50 0.45 0.32 0.24 0.22 0.19 0.16 0.14 0.13 0.12 0.12 0.13 0.13 0.13 0.13 0.13 0.16 0.19 0.31 0.47 0.60 0.61 0.57 0.54 0.50 0.50 0.51 0.52 0.54 0.55 0.53 0.53
1.28 1.17 0.99 0.96 1.00 0.92 0.84 0.83 0.84 0.81 0.73 0.69 0.63 0.44 0.30 0.23 0.19 0.16 0.15 0.14 0.13 0.14 0.14 0.16 0.16 0.15 0.15 0.16 0.19 0.21 0.30 0.48 0.62 0.66 0.62 0.59 0.59 0.60 0.63 0.68 0.70 0.69 0.69
1.31 1.29 1.24 1.17 1.15 1.13 1.09 1.02 1.01 0.98 0.91 0.88 0.82 0.72 0.48 0.31 0.21 0.17 0.18 0.18 0.17 0.18 0.17 0.18 0.18 0.18 0.17 0.17 0.18 0.19 0.24 0.37 0.54 0.69 0.72 0.71 0.69 0.71 0.77 0.82 0.85 0.84 0.85
1.41 1.36 1.35 1.35 1.34 1.30 1.22 1.17 1.15 1.14 1.10 1.03 0.98 1.00 0.75 0.47 0.30 0.23 0.21 0.22 0.22 0.22 0.21 0.22 0.21 0.21 0.21 0.21 0.20 0.21 0.23 0.27 0.41 0.63 0.82 0.87 0.86 0.87 0.92 0.98 1.02 1.05 1.03
1.45 1.41 1.39 1.40 1.44 1.39 1.30 1.32 1.33 1.22 1.24 1.19 1.13 1.04 0.89 0.70 0.60 0.42 0.29 0.29 0.30 0.28 0.28 0.26 0.24 0.24 0.24 0.24 0.25 0.28 0.30 0.31 0.40 0.60 0.85 0.99 1.02 1.07 1.17 1.26 1.33 1.31 1.22
1.38 1.35 1.35 1.38 1.37 1.37 1.33 1.35 1.39 1.38 1.32 1.29 1.23 1.18 1.16 1.01 0.85 0.76 0.56 0.42 0.39 0.37 0.38 0.37 0.35 0.33 0.31 0.31 0.31 0.36 0.42 0.44 0.52 0.64 0.83 1.01 1.13 1.22 1.33 1.43 1.51 1.54 1.46
1.30 1.24 1.23 1.26 1.31 1.32 1.29 1.29 1.38 1.45 1.46 1.36 1.25 1.15 1.12 1.07 0.95 0.92 0.82 0.61 0.52 0.44 0.42 0.41 0.40 0.40 0.42 0.45 0.49 0.59 0.60 0.62 0.67 0.74 0.88 1.03 1.15 1.25 1.37 1.51 1.61 1.65 1.63
1.27 1.21 1.18 1.20 1.24 1.28 1.33 1.40 1.41 1.41 1.47 1.46 1.40 1.31 1.23 1.11 1.03 1.04 1.02 0.84 0.68 0.54 0.50 0.48 0.46 0.46 0.49 0.52 0.59 0.75 0.75 0.77 0.80 0.85 0.97 1.13 1.18 1.19 1.23 1.33 1.48 1.58 1.62
1.16 1.18 1.23 1.27 1.29 1.31 1.32 1.34 1.33 1.30 1.35 1.37 1.37 1.34 1.27 1.18 1.17 1.17 1.16 1.20 1.09 0.85 0.72 0.65 0.61 0.62 0.64 0.67 0.75 0.86 0.78 0.86 0.84 0.84 0.94 1.03 1.04 1.01 1.01 1.08 1.27 1.45 1.53
1.08 1.11 1.17 1.22 1.23 1.23 1.22 1.23 1.22 1.19 1.23 1.27 1.29 1.30 1.26 1.16 1.15 1.16 1.17 1.24 1.34 1.19 0.89 0.68 0.65 0.65 0.69 0.72 0.81 0.78 0.72 0.86 0.87 0.83 0.85 0.85 0.84 0.82 0.80 0.83 0.92 1.07 1.18
0.90 0.93 1.00 1.07 1.09 1.08 1.07 1.09 1.10 1.08 1.11 1.11 1.13 1.19 1.21 1.14 1.11 1.13 1.16 1.19 1.28 1.33 1.12 0.76 0.64 0.63 0.67 0.70 0.78 0.71 0.66 0.79 0.77 0.75 0.74 0.72 0.72 0.70 0.69 0.69 0.72 0.80 0.90
0.82 0.86 0.89 0.93 0.95 0.96 0.97 0.97 0.96 0.95 0.97 0.97 0.98 1.01 1.04 1.07 1.12 1.12 1.14 1.18 1.23 1.29 1.26 0.93 0.75 0.73 0.77 0.76 0.76 0.70 0.63 0.62 0.61 0.71 0.67 0.64 0.62 0.62 0.61 0.61 0.62 0.65 0.68
0.71 0.71 0.74 0.77 0.78 0.79 0.80 0.83 0.83 0.83 0.83 0.83 0.84 0.89 0.91 0.94 0.99 1.04 1.10 1.15 1.18 1.20 1.22 1.07 0.84 0.75 0.74 0.71 0.68 0.65 0.60 0.56 0.51 0.62 0.61 0.57 0.56 0.54 0.52 0.52 0.55 0.59 0.61
0.72 0.64 0.62 0.63 0.64 0.66 0.67 0.69 0.71 0.71 0.73 0.74 0.74 0.78 0.81 0.86 0.92 0.93 0.97 1.01 1.02 1.04 1.08 1.05 0.87 0.72 0.66 0.62 0.62 0.58 0.53 0.50 0.46 0.50 0.52 0.51 0.51 0.52 0.52 0.52 0.53 0.54 0.53
0.65 0.61 0.57 0.54 0.54 0.57 0.61 0.63 0.65 0.67 0.68 0.69 0.71 0.74 0.76 0.79 0.81 0.83 0.88 0.90 0.90 0.91 0.93 0.96 0.89 0.78 0.72 0.67 0.68 0.64 0.58 0.52 0.49 0.44 0.50 0.51 0.52 0.52 0.48 0.45 0.44 0.45 0.47
0.53 0.53 0.53 0.53 0.51 0.50 0.53 0.57 0.60 0.64 0.66 0.69 0.70 0.72 0.75 0.83 0.84 0.82 0.81 0.80 0.81 0.86 0.90 0.97 0.94 0.79 0.66 0.62 0.61 0.57 0.56 0.55 0.55 0.51 0.50 0.46 0.41 0.37 0.36 0.38 0.40 0.43 0.46
0.43 0.46 0.51 0.55 0.59 0.61 0.73 0.69 0.63 0.64 0.68 0.69 0.68 0.66 0.66 0.71 0.70 0.71 0.71 0.70 0.75 0.83 0.94 0.98 0.87 0.71 0.56 0.49 0.49 0.54 0.59 0.64 0.58 0.41 0.42 0.41 0.39 0.38 0.34 0.32 0.40 0.44 0.45
0.52 0.56 0.60 0.65 0.69 0.76 0.84 0.76 0.71 0.64 0.65 0.66 0.64 0.59 0.56 0.54 0.56 0.49 0.52 0.57 0.60 0.68 0.71 0.65 0.58 0.50 0.46 0.45 0.54 0.64 0.63 0.62 0.50 0.36 0.43 0.47 0.41 0.39 0.34 0.35 0.42 0.39 0.40
0.76 0.80 0.83 0.85 0.84 0.83 0.82 0.72 0.70 0.61 0.58 0.54 0.49 0.44 0.41 0.38 0.37 0.39 0.41 0.49 0.47 0.46 0.45 0.42 0.40 0.38 0.38 0.41 0.51 0.63 0.65 0.64 0.52 0.41 0.41 0.44 0.36 0.33 0.30 0.31 0.39 0.39 0.39
0.87 0.85 0.82 0.80 0.77 0.72 0.67 0.58 0.50 0.43 0.44 0.42 0.37 0.34 0.34 0.32 0.38 0.45 0.45 0.47 0.38 0.33 0.37 0.41 0.44 0.43 0.44 0.44 0.45 0.56 0.67 0.75 0.66 0.44 0.35 0.37 0.32 0.31 0.31 0.30 0.33 0.39 0.38
0.67 0.61 0.57 0.54 0.51 0.47 0.46 0.41 0.37 0.32 0.31 0.29 0.29 0.29 0.34 0.34 0.41 0.49 0.45 0.41 0.35 0.31 0.32 0.36 0.39 0.41 0.39 0.41 0.47 0.47 0.62 0.87 0.77 0.54 0.30 0.35 0.37 0.44 0.58 0.35 0.29 0.31 0.34